Oshkosh, WI

8:50 PM CDT on March 26, 2017 (GMT -0500)
Wittman Regional

Weather History for KOSH - May, 2013

Change the Weather History Date:

Friday, May 17, 2013

  Actual Average Record
Temperature  
Mean Temperature 54 °F -  
Max Temperature 57 °F 70 °F 85 °F (1962)
Min Temperature 50 °F 47 °F 33 °F (2002)
Degree Days  
Heating Degree Days 12    
Growing Degree Days 4 (Base 50)    
Moisture  
Dew Point 45 °F    
Average Humidity 76    
Maximum Humidity 86    
Minimum Humidity 45    
Precipitation  
Precipitation 0.22 in - - ()
Sea Level Pressure  
Sea Level Pressure 30.08 in    
Wind  
Wind Speed 9 mph (ENE)    
Max Wind Speed 13 mph    
Max Gust Speed -    
Visibility 10 miles    
Events Rain    
Averages and records for this station are not official NWS values.
T = Trace of Precipitation, MM = Missing Value Source: NWS Daily Summary

Daily Weather History Graph

Daily Weather History Graph

Search for Another Location

Airport or City:

Trip Planner

Search our weather history database for the weather conditions in past years. The results will help you decide how hot, cold, wet, or windy it might be!

Date:

Astronomy

May. 17, 2013 Rise Set
Actual Time 5:25 AM CDT 8:16 PM CDT
Civil Twilight 4:52 AM CDT 8:49 PM CDT
Nautical Twilight 4:09 AM CDT 9:32 PM CDT
Astronomical Twilight 3:20 AM CDT 10:22 PM CDT
Moon 12:04 PM CDT (5/17) 1:03 AM CDT (5/17)
Length of Visible Light 15h 57m
Length of Day
14h 50m
Waxing Crescent, 45% of the Moon is Illuminated
May 17
Waxing Crescent
May 17
First Quarter
May 24
Full
May 31
Last Quarter
Jun 8
New

Hourly Weather History & Observations

Time (CDT) Temp. Dew Point Humidity Pressure Visibility Wind Dir Wind Speed Gust Speed Precip Events Conditions
12:53 AM 57.0 °F 36.0 °F 45% 29.99 in 10.0 mi ENE 9.2 mph - N/A   Mostly Cloudy
1:53 AM 55.9 °F 37.9 °F 51% 30.00 in 10.0 mi ENE 8.1 mph - N/A   Overcast
2:53 AM 54.0 °F 39.0 °F 57% 30.01 in 10.0 mi ENE 10.4 mph - N/A   Scattered Clouds
3:53 AM 54.0 °F 39.0 °F 57% 30.01 in 10.0 mi ENE 8.1 mph - N/A   Clear
4:53 AM 53.1 °F 39.9 °F 61% 30.03 in 10.0 mi ENE 9.2 mph - N/A   Mostly Cloudy
5:53 AM 52.0 °F 39.9 °F 63% 30.06 in 10.0 mi NE 9.2 mph - N/A   Partly Cloudy
6:53 AM 52.0 °F 41.0 °F 66% 30.10 in 10.0 mi NE 12.7 mph - N/A   Overcast
7:53 AM 51.1 °F 43.0 °F 74% 30.13 in 9.0 mi NNE 8.1 mph - 0.00 in Rain Light Rain
8:53 AM 51.1 °F 44.1 °F 77% 30.14 in 10.0 mi ENE 5.8 mph - 0.01 in   Overcast
9:53 AM 51.1 °F 46.0 °F 83% 30.13 in 10.0 mi ENE 4.6 mph - 0.03 in Rain Light Rain
10:53 AM 50.0 °F 46.0 °F 86% 30.13 in 10.0 mi NE 9.2 mph - 0.05 in Rain Light Rain
11:53 AM 52.0 °F 48.0 °F 86% 30.12 in 10.0 mi East 10.4 mph - 0.02 in Rain Light Rain
12:53 PM 52.0 °F 48.0 °F 86% 30.10 in 10.0 mi ESE 11.5 mph - 0.01 in Rain Light Rain
1:53 PM 52.0 °F 48.0 °F 86% 30.10 in 8.0 mi ESE 9.2 mph - 0.02 in Rain Light Rain
2:53 PM 52.0 °F 48.0 °F 86% 30.12 in 8.0 mi ESE 6.9 mph - 0.07 in Rain Light Rain
3:53 PM 52.0 °F 48.0 °F 86% 30.09 in 10.0 mi East 9.2 mph - 0.01 in Rain Light Rain
4:53 PM 54.0 °F 48.0 °F 80% 30.08 in 10.0 mi East 10.4 mph - 0.00 in   Overcast
5:53 PM 54.0 °F 48.0 °F 80% 30.09 in 10.0 mi East 10.4 mph - N/A   Mostly Cloudy
6:53 PM 53.1 °F 48.9 °F 86% 30.10 in 10.0 mi ENE 8.1 mph - N/A   Overcast
7:53 PM 53.1 °F 48.0 °F 83% 30.09 in 10.0 mi ENE 5.8 mph - N/A   Overcast
8:53 PM 53.1 °F 48.0 °F 83% 30.10 in 10.0 mi ENE 6.9 mph - N/A   Mostly Cloudy
9:53 PM 53.1 °F 48.0 °F 83% 30.10 in 10.0 mi East 8.1 mph - N/A   Partly Cloudy
10:53 PM 53.1 °F 48.9 °F 86% 30.09 in 10.0 mi East 9.2 mph - N/A   Overcast
11:53 PM 53.1 °F 48.9 °F 86% 30.09 in 10.0 mi ENE 6.9 mph - N/A   Overcast